Weather History for Dallas/Ft Worth, TX

Change the Weather History Date:

Monday, March 12, 2012

  Actual Average Record
Temperature  
Mean Temperature 67 °F 57 °F  
Max Temperature 80 °F 67 °F 91 °F (1918)
Min Temperature 53 °F 46 °F 14 °F (1948)
Degree Days  
Heating Degree Days 0 9  
Month to date heating degree days 84 127  
Since 1 July heating degree days 1745 2059  
Cooling Degree Days 2 1  
Month to date cooling degree days 4 10  
Year to date cooling degree days 12 17  
Growing Degree Days 16 (Base 50)    
Moisture  
Dew Point 54 °F    
Average Humidity 70    
Maximum Humidity 100    
Minimum Humidity 39    
Precipitation  
Precipitation 0.00 in 0.11 in 1.63 in (1943)
Month to date precipitation 1.47 1.36  
Year to date precipitation 9.53 6.15  
Snow  
Snow 0.00 in 0.00 in T in (1970)
Month to date snowfall 0.0 0.1  
Since 1 July snowfall 0.3 1.1  
Snow Depth 0.00 in    
Sea Level Pressure  
Sea Level Pressure 29.97 in    
Wind  
Wind Speed 12 mph (South)    
Max Wind Speed 20 mph    
Max Gust Speed 23 mph    
Visibility 8 miles    
Events      
T = Trace of Precipitation, MM = Missing Value Source: NWS Daily Summary

Daily Weather History Graph

Daily Weather History Graph

Search for Another Location

Airport:

Trip Planner

Search our weather history database for the weather conditions in past years. The results will help you decide how hot, cold, wet, or windy it might be!

Date:

Astronomy

Mar. 12, 2012 Rise Set
Actual Time 7:41 AM CDT 7:34 PM CDT
Civil Twilight 7:16 AM CDT 7:58 PM CDT
Nautical Twilight 6:48 AM CDT 8:27 PM CDT
Astronomical Twilight 6:19 AM CDT 8:56 PM CDT
Moon No Moon Rise 10:22 AM CDT (3/12)
Length of Visible Light 12h 41m
Length of Day
11h 52m
Waning Gibbous, 76% of the Moon is Illuminated
Mar 12
Waning Gibbous
Mar 14
Last Quarter
Mar 22
New
Mar 30
First Quarter
Apr 6
Full

Hourly Weather History & Observations

Time (CDT) Temp. Dew Point Humidity Pressure Visibility Wind Dir Wind Speed Gust Speed Precip Events Conditions
12:53 AM 55.0 °F 52.0 °F 89% 29.94 in 10.0 mi South 8.1 mph - N/A   Clear
1:53 AM 54.0 °F 52.0 °F 93% 29.93 in 10.0 mi South 11.5 mph - N/A   Partly Cloudy
2:53 AM 55.0 °F 54.0 °F 96% 29.93 in 8.0 mi South 11.5 mph - N/A   Partly Cloudy
3:53 AM 55.0 °F 54.0 °F 96% 29.93 in 7.0 mi South 9.2 mph - N/A   Partly Cloudy
4:53 AM 54.0 °F 53.1 °F 97% 29.94 in 7.0 mi South 10.4 mph - N/A   Partly Cloudy
5:30 AM 53.6 °F 51.8 °F 94% 29.96 in 5.0 mi SSE 8.1 mph - N/A   Mostly Cloudy
5:53 AM 53.6 °F 53.6 °F 100% 29.96 in 5.0 mi South 11.5 mph - N/A   Mostly Cloudy
6:53 AM 54.0 °F 52.0 °F 93% 29.96 in 7.0 mi South 8.1 mph - N/A   Mostly Cloudy
7:04 AM 53.6 °F 51.8 °F 94% 29.97 in 7.0 mi South 11.5 mph - N/A   Partly Cloudy
7:53 AM 53.1 °F 52.0 °F 96% 29.98 in 3.0 mi South 10.4 mph - N/A   Partly Cloudy
8:10 AM 53.6 °F 51.8 °F 94% 29.99 in 2.5 mi South 10.4 mph - N/A   Mostly Cloudy
8:53 AM 55.0 °F 54.0 °F 96% 30.00 in 3.0 mi South 9.2 mph - N/A   Mostly Cloudy
9:28 AM 57.2 °F 53.6 °F 88% 30.02 in 8.0 mi South 13.8 mph - N/A   Partly Cloudy
9:53 AM 57.9 °F 55.0 °F 90% 30.01 in 8.0 mi South 15.0 mph - N/A   Clear
10:53 AM 63.0 °F 54.0 °F 72% 30.02 in 10.0 mi South 15.0 mph - N/A   Clear
11:53 AM 66.9 °F 52.0 °F 59% 30.02 in 10.0 mi South 13.8 mph - N/A   Partly Cloudy
12:53 PM 71.1 °F 50.0 °F 47% 30.01 in 10.0 mi SSW 12.7 mph - N/A   Partly Cloudy
1:53 PM 75.0 °F 52.0 °F 44% 29.99 in 10.0 mi SSW 11.5 mph 16.1 mph N/A   Scattered Clouds
2:53 PM 77.0 °F 50.0 °F 39% 29.96 in 10.0 mi SSW 16.1 mph - N/A   Partly Cloudy
3:53 PM 79.0 °F 51.1 °F 38% 29.94 in 10.0 mi SSW 15.0 mph 20.7 mph N/A   Partly Cloudy
4:53 PM 79.0 °F 51.1 °F 38% 29.94 in 10.0 mi SSW 13.8 mph - N/A   Partly Cloudy
5:53 PM 77.0 °F 55.0 °F 47% 29.94 in 10.0 mi South 10.4 mph - N/A   Scattered Clouds
6:53 PM 75.0 °F 54.0 °F 48% 29.94 in 10.0 mi South 16.1 mph - N/A   Scattered Clouds
7:53 PM 72.0 °F 60.1 °F 66% 29.96 in 10.0 mi South 12.7 mph - N/A   Scattered Clouds
8:53 PM 70.0 °F 61.0 °F 73% 29.98 in 10.0 mi South 11.5 mph - N/A   Clear
9:53 PM 66.0 °F 60.1 °F 81% 29.99 in 10.0 mi SSE 8.1 mph - N/A   Partly Cloudy
10:53 PM 64.9 °F 61.0 °F 87% 30.01 in 10.0 mi SSE 6.9 mph - N/A   Partly Cloudy
11:53 PM 64.9 °F 61.0 °F 87% 30.02 in 10.0 mi SSE 10.4 mph - N/A   Scattered Clouds